Weather Roundup
Issued by NWS Springfield, MO

Home | Current Version | Previous Version | Text Only | Print | Product List | Glossary On
Versions: 1 2 3 4 5 6 7 8 9 10 11 12 13 14 15 16 17 18 19 20 21 22 23 24 25 26 27 28 29 30 31 32 33 34 35 36 37 38 39 40 41 42 43 44 45 46 47 48 49 50
790
NZUS99 KSGF 310957
HRRSGF

HOURLY WEATHER
NATIONAL WEATHER SERVICE SPRINGFIELD MO
500 AM CDT TUE MAY 31 2016

......SGF CWA......

CITY           SKY/WX    TMP DP  RH WIND       PRES   REMARKS
SPRINGFIELD    CLOUDY    65  62  90 SE7       29.94S
JOPLIN         CLOUDY    65  64  97 SE3       29.95R
WEST PLAINS    CLOUDY    64  60  87 E3        29.99R
ROLLA          CLOUDY    63  61  93 E5        29.97F

......SURROUNDING SGF CWA......

CITY           SKY/WX    TMP DP  RH WIND       PRES   REMARKS
CHANUTE        FOG       61  59  93 CALM      29.92F VSB 3/4
PARSONS        PTCLDY    61  60  97 CALM      29.93F FOG
COFFEYVILLE    CLOUDY    62  61  96 CALM      29.93F FOG
EMPORIA        CLOUDY    60  59  96 CALM      29.94R
HARRISON AR    CLOUDY    64  62  93 SE6       29.96R

......KANSAS AND MISSOURI......

CITY           SKY/WX    TMP DP  RH WIND       PRES   REMARKS
KANSAS CTY INT CLOUDY    62  59  90 CALM      29.94S
SEDALIA        CLOUDY    65  62  90 SE7       29.97R
ST JOSEPH      MOCLDY    63  61  93 S6        29.94R
ST LOUIS       CLOUDY    70  63  78 CALM      29.97F
WICHITA        CLOUDY    66  63  90 N10       29.94R THUNDER
TOPEKA         CLOUDY    63  60  90 CALM      29.94R
OLATHE         CLOUDY    61  60  97 CALM      29.95R

......TENNESSEE......

CITY           SKY/WX    TMP DP  RH WIND       PRES   REMARKS
MEMPHIS        NOT AVBL
NASHVILLE      CLOUDY    65  60  84 CALM      29.97R

......ARKANSAS.......

CITY           SKY/WX    TMP DP  RH WIND       PRES   REMARKS
FAYETTEVILLE   CLOUDY    60  60 100 CALM      29.96R FOG
FT SMITH       CLOUDY    66  63  90 E7        29.92S
LITTLE ROCK    CLOUDY    67  64  90 CALM      29.96R

......OKLAHOMA.......

CITY           SKY/WX    TMP DP  RH WIND       PRES   REMARKS
TULSA          CLOUDY    65  64  97 CALM      29.90F
PONCA CITY     CLOUDY    65  63  93 SE7       29.88F
MCALESTER      CLOUDY    66  64  93 CALM      29.90F FOG
OKLAHOMA CITY  MOCLDY    67  66  97 SE7       29.88F

......IOWA............

CITY           SKY/WX    TMP DP  RH WIND       PRES   REMARKS
DES MOINES     NOT AVBL
QUAD CITIES    CLOUDY    68  63  84 CALM      29.94S

......ILLINOIS........

CITY           SKY/WX    TMP DP  RH WIND       PRES   REMARKS
QUINCY         PTCLDY    66  61  84 CALM      29.97R
CHICAGO        PTCLDY    68  53  58 E7        29.98S




USA.gov is the U.S. government's official web portal to all federal, state and local government web resources and services.